User: anonymous   Login
Location: Goheenville
(40.9070°N, 79.3720°W)
Time: 21:32:39
(UTC-04:00)
Language:

Cosmos 1727 Rocket - Orbit

View from above orbital plane
View from above orbital plane
View from above satellite
View from above satellite

Ground track
Ground track

The orbit data is extracted from the following two-line orbital elements,

1 16511U 86008B   15245.81390845 +.00000049 +00000-0 +35354-4 0  9998
2 16511 082.9483 344.4516 0023103 309.8760 163.7255 13.75800634486171
Epoch (UTC): 02 September 2015 19:32:01
Eccentricity: 0.0023103
inclination: 82.9483°
perigee height: 962 km
apogee height: 996 km
right ascension of ascending node: 344.4516°
argument of perigee: 309.8760°
revolutions per day: 13.75800634
mean anomaly at epoch: 163.7255°
orbit number at epoch: 48617

The dashed part of the orbit path shows where the satellite is in the earth's shadow,  

DLR